735  
ASUS42 KCAE 240510  
RWRCAE  
REGIONAL WEATHER ROUNDUP  
NATIONAL WEATHER SERVICE COLUMBIA SC  
100 AM EDT TUE OCT 24 2017  
 
NOTE: "FAIR" INDICATES FEW OR NO CLOUDS BELOW 12,000 FEET WITH NO  
SIGNIFICANT WEATHER AND/OR S TO VISIBILITY
.  
 
NOT ALL STATIONS ARE QUALITY CONTROLLED BY THE NATIONAL  
WEATHER SERVICE. USE DATA WITH CAUTION...ESPECIALLY  
DEWPOINT OBSERVATIONS.  
 
SCZ001>056-GAZ040-063>065-077-240600-   
..UPSTATE SOUTH CAROLINA
 
 
 
CITY SKY/WX TMP DP RH WIND PRES REMARKS
 
ANDERSON CLEAR 58 52 80 W7 29.89S  
LIBERTY CLEAR 53 52 95 W5 29.88S  
SPARTANBURG CLEAR 55 50 82 W7 29.86S  
CLEMSON CLEAR 55 52 89 W9 29.89F  
GREENVILLE CLEAR 58 50 75 W8 29.88S  
GREENWOOD CLEAR 57 53 86 W8 29.90S  
GREER CLEAR 55 53 93 W7 29.87S  
ROCK HILL CLEAR 57 57 100 SW8 29.85S  
CHESTER CLEAR 55 55 100 CALM 29.87R  
LAURENS CLEAR 54 52 94 SW3 29.88R  
 
   
..CENTRAL SOUTH CAROLINA
 
 
 
CITY SKY/WX TMP DP RH WIND PRES REMARKS
 
COLUMBIA APT CLEAR 62 61 96 W8 29.87S  
COLUMBIA OWENS CLEAR 65 59 81 W8 29.87F  
MCENTIRE ANGB CLEAR 61 61 100 W6 29.86F  
ORANGEBURG CLEAR 64 61 90 W5 29.88F  
SUMTER SHAW CLEAR 64 62 94 W10 29.84F  
NEWBERRY CLEAR 59 54 82 SW8 29.91S  
AIKEN FAIR 57 55 94 W7 29.93S  
BARNWELL N/A 63 61 94 W3 29.89S  
MANNING FAIR 64 52 63 MISG 29.87F  
CAMDEN FAIR 61 59 94 CALM 29.87S  
LANCASTER CLEAR 59 59 100 SW6 29.86S  
WINNSBORO CLEAR 59 55 88 SW5 29.87S  
 
   
..EASTERN AND COASTAL SOUTH CAROLINA
 
 
 
CITY SKY/WX TMP DP RH WIND PRES REMARKS
 
MYRTLE BEACH CLOUDY 69 66 90 NW5 29.88F  
N MYRTLE BCH CLOUDY 70 66 87 VRB5 29.87S  
CONWAY FAIR 64 64 100 CALM 29.87F  
MARION FAIR 63 61 94 S3 29.86F  
HARTSVILLE FAIR 61 59 94 SW3 29.85F  
FLORENCE CLEAR 63 63 100 SW6 29.86F  
DARLINGTON CLEAR 63 62 97 SW6 29.86F  
CHARLESTON APT PTCLDY 68 65 90 W5 29.88S  
MOUNT PLEASANT FAIR 70 64 83 W5 29.87F  
WALTERBORO MOCLDY 68 64 88 W3 29.89S  
BEAUFORT PTCLDY 69 68 96 MISG 29.89S  
 
   
..EASTERN GEORGIA
 
 
 
CITY SKY/WX TMP DP RH WIND PRES REMARKS
 
AUGUSTA BUSH F CLEAR 62 56 80 W7 29.90F  
AUGUSTA DANIEL CLEAR 63 55 75 W7 29.91F  
THOMSON CLEAR 58 54 86 NW8 29.97S  
WASHINGTON FAIR 55 52 88 W6 29.92S  
CLAXTON FAIR 63 60 90 CALM 29.92S  
SYLVANIA CLEAR 63 62 99 CALM 29.91S  
STATESBORO CLEAR 63 56 78 NW6 29.91S  
SAVANNAH PTCLDY 68 64 87 W6 29.90S  
 
   
..SOUTHERN NORTH CAROLINA
 
 
 
CITY SKY/WX TMP DP RH WIND PRES REMARKS
 
CHARLOTTE PTCLDY 59 57 93 SW6 29.84S  
MONROE CLEAR 58 57 97 SW9 29.83F  
WADESBORO CLEAR 62 59 91 SW3 29.83F  
RUTHERFORDTON CLEAR 56 55 95 W6 29.86R  
ASHEVILLE PTCLDY 53 50 89 N8 29.89S  
 

 
 
 
CLICK HERE TO GO TO PREVIOUS BULLETINS.

The Nexlab SC Page
The Nexlab GA Page Main Text Page